Location: Basses Si�yes
(44.0835°N, 6.2037°E)
Time: 18:23:52
(UTC+00:00)

STARLINK-1043 - Pass Details

Date: 27 February 2020
Orbit: 548 x 551 km, 53.0° (Epoch: 01 April)

Event Time Altitude Azimuth Distance (km) Brightness Sun altitude
Rises 17:58:24 0° 228° (SW) 2,704 8.1 -7.7°
Maximum altitude 18:04:44 72° 143° (SE) 579 3.6 -8.8°
Drops below altitude 10° 18:08:52 10° 59° (ENE) 1,824 5.7 -9.5°
Enters shadow 18:08:57 10° 59° (ENE) 1,855 5.8 -9.5°
